Location: Unspecified
(50.7693°N, 0.0000°E)
Time: 20:28:33
(UTC+00:00)

Transit 4A - Pass Details

Date: 25 June 2019
Orbit: 862 x 982 km, 66.8° (Epoch: 18 July)

Event Time Altitude Azimuth Distance (km) Brightness Sun altitude
Rises 13:06:40 0° 313° (NW) 3,696 11.0 59.9°
Reaches altitude 10° 13:09:53 10° 328° (NNW) 2,747 10.3 59.7°
Maximum altitude 13:14:51 23° 19° (NNE) 1,970 9.6 59.2°
Drops below altitude 10° 13:19:46 10° 69° (ENE) 2,718 10.2 58.8°
Sets 13:22:56 0° 84° (E) 3,648 10.8 58.5°
